Regional Weather Roundup
Issued by NWS

Home | Current Version | Previous Version | Graphics & Text | Print | Product List | Glossary On
Versions: 1 2 3 4 5 6 7 8 9 10 11 12 13 14 15 16 17 18 19 20 21 22 23 24 25 26 27 28 29 30 31 32 33 34 35 36 37 38 39 40 41 42 43 44 45 46 47 48 49
000
ASUS43 KDMX 282007
RWRIA

WEATHER ROUNDUP FOR IOWA
NATIONAL WEATHER SERVICE DES MOINES IA
300 PM CDT TUE JUL 28 2015

NOTE: "FAIR" INDICATES FEW OR NO CLOUDS BELOW 12,000 FEET WITH NO
SIGNIFICANT WEATHER AND/OR OBSTRUCTIONS TO VISIBILITY.

* - THESE STATIONS ARE NOT NWS STATIONS...THUS NOT UNDER NWS
QUALITY CONTROL.  THEY ALSO DO NOT REPORT WEATHER SUCH
AS PRECIPITATION OR FOG.

IAZ001>003-012>014-020>022-031>034-043>046-282100-
   NORTHWEST IOWA

CITY           SKY/WX    TMP DP  RH WIND       PRES   REMARKS
CARROLL *      SUNNY     79  77  94 SE12      29.88F HX  83
CHEROKEE *     CLOUDY    77  73  88 SW7       29.90R
DENISON *      MOSUNNY   77  75  94 S9        29.87R FOG
LE MARS *      CLOUDY    77  72  83 W5        29.91R
ORANGE CITY *  CLOUDY    73  70  88 W9        29.90R
SHELDON *      CLOUDY    75  72  88 VRB3      29.88R
SIOUX CITY     CLOUDY    76  69  79 NW8       29.90R
SPENCER        CLOUDY    78  70  76 SW12      29.89R HX  80
STORM LAKE *   PTSUNNY   75  72  88 VRB5      29.92R
$$

IAZ055>058-069>071-079>083-090>094-282100-
   SOUTHWEST IOWA

CITY           SKY/WX    TMP DP  RH WIND       PRES   REMARKS
ATLANTIC *     MOSUNNY   86  77  74 S6        29.88R HX  97
AUDUBON *      LGT RAIN  79  75  89 SE5       29.90F HX  82
CLARINDA *     MOSUNNY   91  79  66 S13       29.87S HX 107
COUNCIL BLFS * SUNNY     86  77  74 S7G13     29.87S HX  97
CRESTON *      MOSUNNY   88  79  74 S15       29.88S HX 102
HARLAN  *      CLOUDY    82  82 100 S6        29.91R HX  97
LAMONI         MOSUNNY   92  77  61 S14G21    29.87F HX 105
RED OAK *      PTSUNNY   90  81  74 SE5       29.86F HX 108
SHENANDOAH *   MOSUNNY   90  79  70 S9G15     29.86S HX 105
$$

IAZ047>049-059>061-072>074-084-282100-
   CENTRAL IOWA

CITY           SKY/WX    TMP DP  RH WIND       PRES   REMARKS
AMES           TSTM      75  73  93 SE15      29.87F FOG
ANKENY *       CLOUDY    84  79  84 NE6       29.90R HX  96
CHARITON *     SUNNY     88  77  70 S15       29.87F HX 100
DES MOINES     CLOUDY    88  75  65 S8        29.88R HX  97
GRINNELL*      CLOUDY    81  72  74 N8        29.92R HX  84
KNOXVILLE *    SUNNY     86  79  79 S9G18     29.86F HX  99
MARSHALLTOWN   TSTM      73  70  90 S8        29.91R FOG
PELLA *        CLOUDY    84  79  84 SE12G17   29.88F HX  96
PERRY *        HVY RAIN  75  73  94 SE13      29.89F
$$

IAZ004>006-015-016-023>025-035-036-282100-
   NORTH CENTRAL IOWA

CITY           SKY/WX    TMP DP  RH WIND       PRES   REMARKS
ALGONA *       CLOUDY    79  72  78 S13       29.90R HX  82
CLARION *      MOSUNNY   77  72  83 S14G21    29.89F
ESTHERVILLE    CLOUDY    78  71  79 SW12      29.88R HX  80
FORT DODGE *   CLOUDY    77  70  78 S8        29.91R
MASON CITY     PTSUNNY   77  73  87 S18G24    29.90S
FOREST CITY *  CLOUDY    77  70  78 S13G22    29.89S
IOWA FALLS *     N/A     75  70  83 S7        29.90F
$$

IAZ007>011-017>019-026>030-037>042-050>054-066-282100-
   NORTHEAST IOWA

CITY           SKY/WX    TMP DP  RH WIND       PRES   REMARKS
CEDAR RAPIDS   CLOUDY    76  73  91 S13G23    29.88R
CHARLES CITY * SUNNY     81  75  83 SW10G21   29.90S HX  86
CLINTON *      CLOUDY    79  72  78 S16       29.88F HX  82
DECORAH *      SUNNY     81  72  74 S6        29.86S HX  84
DUBUQUE        CLOUDY    77  74  90 SE13      29.89R
MONTICELLO *   SUNNY     79  70  73 SE9       29.86R HX  81
OELWEIN *      SUNNY     81  72  74 S10       29.90R HX  84
WATERLOO       MOSUNNY   77  70  79 S7        29.88R
$$

IAZ064-065-067-068-078-282100-
   EAST CENTRAL IOWA

CITY           SKY/WX    TMP DP  RH WIND       PRES   REMARKS
DAVENPORT      CLOUDY    77  74  90 SE10      29.89F
IOWA CITY      CLOUDY    79  72  79 SE10      29.90S HX  82
MT. PLEASANT * CLOUDY    84  72  65 E10       29.91F HX  89
MUSCATINE *    SUNNY     82  72  69 SE8       29.89F HX  87
QUAD CITIES    CLOUDY    79  73  82 SE8       29.89F HX  82
$$

IAZ062-063-075>077-085>089-095>099-282100-
   SOUTHEAST IOWA

CITY           SKY/WX    TMP DP  RH WIND       PRES   REMARKS
BURLINGTON     PTSUNNY   84  75  74 NE14      29.91F HX  92
FAIRFIELD *    SUNNY     84  75  74 SE10      29.90S HX  92
FORT MADISON * SUNNY     91  82  75 S7        29.91S HX 114
KEOKUK *       SUNNY     91  79  66 S9        29.90S HX 107
OSKALOOSA *      N/A     86  79  79 SE10G16   29.88F HX  99
CENTERVILLE *  SUNNY     88  81  79 SE8       29.91F HX 105
OTTUMWA        PTSUNNY   87  80  79 SE12      29.87F HX 103
WASHINGTON *   SUNNY     79  73  83 SE9       29.91F HX  82
$$

ABBREVIATIONS USED IN REMARKS
   TC - TEMPERATURES IN CELSIUS
  WCI - WIND CHILL INDEX
   HX - HEAT INDEX
  VSB - VISIBILITY
$$




USA.gov is the U.S. government's official web portal to all federal, state and local government web resources and services.